This is the latest recevied weather packets stored in our database for station/object DB0MOE-6. If no packets are shown the sender has not sent any weather packets the latest 1 day(s).
| Time | Temp. | Humidity | Pressure | Rain* | Wind** | Luminosity | Snow |
|---|---|---|---|---|---|---|---|
| 1778014342 | 13.89° C | 82% | 988.4 hPa | 0 mm | 0 m/s | - | - |
| 1778014282 | 13.89° C | 82% | 988.4 hPa | 0 mm | 0.45 m/s, 77° | - | - |
| 1778014222 | 13.89° C | 82% | 988.2 hPa | 0 mm | 0.45 m/s, 135° | - | - |
| 1778014162 | 13.89° C | 82% | 988.3 hPa | 0 mm | 0.45 m/s, 135° | - | - |
| 1778014101 | 13.89° C | 82% | 988.3 hPa | 0 mm | 0.45 m/s, 131° | - | - |
| 1778014041 | 13.89° C | 83% | 988.3 hPa | 0 mm | 0.45 m/s, 42° | - | - |
| 1778013981 | 13.89° C | 84% | 988.3 hPa | 0 mm | 0 m/s | - | - |
| 1778013921 | 13.89° C | 83% | 988.4 hPa | 0 mm | 0.45 m/s, 85° | - | - |
| 1778013861 | 13.89° C | 84% | 988.4 hPa | 0 mm | 0 m/s | - | - |
| 1778013801 | 14.44° C | 83% | 988.3 hPa | 0 mm | 0.45 m/s, 228° | - | - |
| 1778013741 | 14.44° C | 83% | 988.4 hPa | 0 mm | 0.45 m/s, 119° | - | - |
| 1778013681 | 14.44° C | 82% | 988.5 hPa | 0 mm | 0.45 m/s, 112° | - | - |
| 1778013621 | 14.44° C | 83% | 988.3 hPa | 0 mm | 0.45 m/s, 123° | - | - |
| 1778013561 | 14.44° C | 83% | 988.3 hPa | 0 mm | 0 m/s | - | - |
| 1778013501 | 14.44° C | 83% | 988.3 hPa | 0 mm | 0 m/s | - | - |
| 1778013441 | 14.44° C | 82% | 988.2 hPa | 0 mm | 0.45 m/s, 33° | - | - |
| 1778013381 | 13.89° C | 82% | 988.2 hPa | 0 mm | 0.45 m/s, 91° | - | - |
| 1778013323 | 13.89° C | 83% | 988.3 hPa | 0 mm | 0.45 m/s, 135° | - | - |
| 1778013263 | 13.89° C | 84% | 988.3 hPa | 0 mm | 0 m/s | - | - |
| 1778013203 | 13.89° C | 84% | 988.3 hPa | 0 mm | 0.45 m/s, 112° | - | - |
| 1778013143 | 13.89° C | 84% | 988.3 hPa | 0 mm | 0.45 m/s, 112° | - | - |
| 1778013083 | 13.89° C | 84% | 988.3 hPa | 0 mm | 0.45 m/s, 122° | - | - |
| 1778013023 | 13.89° C | 84% | 988.4 hPa | 0 mm | 0 m/s | - | - |
| 1778012963 | 13.89° C | 84% | 988.5 hPa | 0 mm | 0.45 m/s, 112° | - | - |
| 1778012903 | 13.89° C | 85% | 988.4 hPa | 0 mm | 0.45 m/s, 127° | - | - |
* Rain latest hour (hover to see other rain measurements)
** Current wind speed in m/s (hover to see current wind gust speed)